Regional Weather Roundup
Issued by NWS

Home | Current Version | Previous Version | Text Only | Print | Product List | Glossary On
Versions: 1 2 3 4 5 6 7 8 9 10 11 12 13 14 15 16 17 18 19 20 21 22 23 24 25 26 27 28 29 30 31 32 33 34 35 36 37 38 39 40 41 42 43 44 45 46 47 48 49 50
000
ASUS45 KCYS 222110
RWRWY

WYOMING REGIONAL WEATHER ROUNDUP
NATIONAL WEATHER SERVICE CHEYENNE WY
200 PM MST SAT NOV 22 2014

NOTE:  "FAIR" INDICATES FEW OR NO CLOUDS BELOW 12,000 FEET
WITH NO SIGNIFICANT WEATHER AND/OR OBSTRUCTIONS TO VISIBILITY.

WYZ001-222200-
YELLOWSTONE NATIONAL PARK

CITY           SKY/WX    TMP DP  RH WIND       PRES   REMARKS
LK YELLOWSTONE   N/A     33  27  78 VRB7      29.54S WCI  27
W YELLOWSTONE  NOT AVBL

$$
WYZ002>013-054>058-071-098>099-222200-
NORTHERN WYOMING

CITY           SKY/WX    TMP DP  RH WIND       PRES   REMARKS
JACKSON        CLOUDY    34  34 100 S23G32    29.58S FOG     WCI  22
CODY           PTSUNNY   43  32  65 SW15G33   29.42F
GREYBULL       CLOUDY    42  28  57 SE3       29.45S
WORLAND        PTSUNNY   42  28  57 SW13      29.43F
SHERIDAN       MOSUNNY   58  25  28 W15       29.36F
BUFFALO        PTSUNNY   50  24  36 SW29G40   29.40F
GILLETTE       CLOUDY    44  29  55 SW31G38   29.39S
HULETT           N/A    N/A N/A N/A MISG        N/A
NEWCASTLE      FAIR      45  27  49 MISG      29.49F

$$
WYZ014>020-022>026-101>103-222200-
CENTRAL WYOMING

CITY           SKY/WX    TMP DP  RH WIND       PRES   REMARKS
BIG PINEY      MOSUNNY   52  30  43 SW18      29.61F
PINEDALE       CLOUDY    36  32  87 S15G22    29.61F WCI  26
DUBOIS         FAIR      34  28  80 NW12G29   29.51S WCI  25
LANDER         NOT AVBL
RIVERTON       CLOUDY    44  27  51 S9        29.53F
CASPER         CLOUDY    43  28  55 SW20G30   29.57F
DOUGLAS        CLOUDY   N/A N/A N/A W32G49    29.50R

$$
WYZ021-027>030-104>119-222200-
SOUTHERN WYOMING

CITY           SKY/WX    TMP DP  RH WIND       PRES   REMARKS
EVANSTON       FLURRIES  34  33  96 SW17      29.72F WCI  23
KEMMERER       CLOUDY    36  32  87 SW25G37   29.67F WCI  23
FORT BRIDGER   MOCLDY    42  36  77 SW30G38   29.72F
ROCK SPRINGS   CLOUDY    33  32  96 S9        29.70F WCI  25
DIXON          LGT SNOW  41  24  51 SW21G32   29.83R
RAWLINS        SNOW      32  30  92 SW21G38   29.74F VSB 1/2 WCI  20
SARATOGA       LGT SNOW  36  30  80 SW26G36   29.74F WCI  23
LARAMIE        PTSUNNY   45  20  36 SW21G31   29.66S
CHEYENNE       PTSUNNY   54  17  23 W25G35    29.61F
TORRINGTON     CLOUDY    57  22  25 W18G26    29.52F
PINE BLUFFS    FAIR      45  18  33 W3        29.60F

$$


USA.gov is the U.S. government's official web portal to all federal, state and local government web resources and services.